Location: Newark
(56.0692°N, 115.8617°E)
Time: 12:41:25
(UTC+00:00)

Vanguard 2 Rocket - Pass Details

Date: 29 May 2020
Orbit: 556 x 3325 km, 32.9° (Epoch: 14 July)

Event Time Altitude Azimuth Distance (km) Brightness Sun altitude
Rises 13:28:43 0° 261° (W) 6,008 11.5 -4.7°
Reaches altitude 10° 13:34:48 10° 243° (WSW) 5,484 11.0 -5.2°
Maximum altitude 13:43:18 16° 212° (SSW) 5,461 10.6 -5.9°
Drops below altitude 10° 13:52:54 10° 183° (S) 6,252 10.7 -6.6°
Enters shadow 13:58:47 - 170° (S) 6,983 10.8 -7.1°
Sets 14:00:57 0° 166° (SSE) 7,276 - -7.2°
